Satellite: MET-3/5
Catalog number: 21655
Epoch time: 12046.84036168
Element set: 0339
Inclination: 082.5535 deg
RA of node: 238.6125 deg
Eccentricity: 0.0012274
Arg of perigee: 268.7852 deg
Mean anomaly: 091.1803 deg
Mean motion: 13.17034678 rev/day
Decay rate: 5.1e-07 rev/day^2
Epoch rev: 98579
Checksum: 317
Satellite: MET-2/21
Catalog number: 22782
Epoch time: 12047.74492670
Element set: 339
Inclination: 082.5489 deg
RA of node: 128.8729 deg
Eccentricity: 0.0023683
Arg of perigee: 130.6855 deg
Mean anomaly: 229.6372 deg
Mean motion: 13.83676923 rev/day
Decay rate: -7.7e-07 rev/day^2
Epoch rev: 93237
Checksum: 346
Satellite: OKEAN-4
Catalog number: 23317
Epoch time: 12047.84014613
Element set: 806
Inclination: 082.5422 deg
RA of node: 144.6278 deg
Eccentricity: 0.0022633
Arg of perigee: 036.2086 deg
Mean anomaly: 324.0655 deg
Mean motion: 14.83585609 rev/day
Decay rate: 9.87e-06 rev/day^2
Epoch rev: 93681
Checksum: 306
Satellite: NOAA-14
Catalog number: 23455
Epoch time: 12046.90425916
Element set: 0798
Inclination: 098.8333 deg
RA of node: 131.9195 deg
Eccentricity: 0.0008951
Arg of perigee: 312.2752 deg
Mean anomaly: 047.7658 deg
Mean motion: 14.13876806 rev/day
Decay rate: 7.4e-07 rev/day^2
Epoch rev: 88351
Checksum: 333
Satellite: NOAA-15
Catalog number: 25338
Epoch time: 12046.60615126
Element set: 0143
Inclination: 098.6813 deg
RA of node: 034.7357 deg
Eccentricity: 0.0011561
Arg of perigee: 104.3251 deg
Mean anomaly: 255.9201 deg
Mean motion: 14.25029175 rev/day
Decay rate: 8.0e-08 rev/day^2
Epoch rev: 71539
Checksum: 274
Satellite: RESURS
Catalog number: 25394
Epoch time: 12046.95417920
Element set: 0026
Inclination: 098.3116 deg
RA of node: 041.6791 deg
Eccentricity: 0.0000493
Arg of perigee: 226.3068 deg
Mean anomaly: 133.8072 deg
Mean motion: 14.24273083 rev/day
Decay rate: 4.0e-08 rev/day^2
Epoch rev: 70700
Checksum: 267
Satellite: FENGYUN1
Catalog number: 25730
Epoch time: 12046.89695482
Element set: 0547
Inclination: 098.8374 deg
RA of node: 008.0781 deg
Eccentricity: 0.0020763
Arg of perigee: 355.7063 deg
Mean anomaly: 004.3917 deg
Mean motion: 14.09234938 rev/day
Decay rate: 1.103e-05 rev/day^2
Epoch rev: 65738
Checksum: 317
Satellite: OKEAN-0
Catalog number: 25860
Epoch time: 12047.89715734
Element set: 548
Inclination: 097.9194 deg
RA of node: 013.1403 deg
Eccentricity: 0.0000582
Arg of perigee: 048.4022 deg
Mean anomaly: 311.7237 deg
Mean motion: 14.74084676 rev/day
Decay rate: 3.67e-06 rev/day^2
Epoch rev: 67670
Checksum: 305
Satellite: NOAA-16
Catalog number: 26536
Epoch time: 12046.58209373
Element set: 0627
Inclination: 099.1116 deg
RA of node: 086.7211 deg
Eccentricity: 0.0011238
Arg of perigee: 070.3744 deg
Mean anomaly: 289.8631 deg
Mean motion: 14.12706027 rev/day
Decay rate: 2.81e-06 rev/day^2
Epoch rev: 58772
Checksum: 303
Satellite: NOAA-17
Catalog number: 27453
Epoch time: 12046.86787936
Element set: 0599
Inclination: 098.3510 deg
RA of node: 080.0106 deg
Eccentricity: 0.0012238
Arg of perigee: 151.7035 deg
Mean anomaly: 208.4808 deg
Mean motion: 14.24392404 rev/day
Decay rate: -7.3e-07 rev/day^2
Epoch rev: 50134
Checksum: 296
Satellite: NOAA-18
Catalog number: 28654
Epoch time: 12046.72833972
Element set: 0075
Inclination: 099.0321 deg
RA of node: 003.8977 deg
Eccentricity: 0.0014862
Arg of perigee: 136.9382 deg
Mean anomaly: 223.2962 deg
Mean motion: 14.11604372 rev/day
Decay rate: 2.62e-06 rev/day^2
Epoch rev: 34728
Checksum: 310
Satellite: NOAA-19
Catalog number: 33591
Epoch time: 12046.70876719
Element set: 0264
Inclination: 098.8540 deg
RA of node: 348.0869 deg
Eccentricity: 0.0014364
Arg of perigee: 011.1482 deg
Mean anomaly: 349.0006 deg
Mean motion: 14.11292335 rev/day
Decay rate: -7.7e-07 rev/day^2
Epoch rev: 15573
Checksum: 308
/EX
SB KEPS @ AMSAT $ORB12047.M
Orbital Elements 12047.MISC
HR AMSAT ORBITAL ELEMENTS FOR MANNED AND MISCELLANEOUS SATELLITES
FROM WA5QGD FORT WORTH,TX February 16, 2012
Send SUBSCRIBE KEPS/UNSUBSCRIBE KEPS to majordomo(a)amsat.org only
BID: ORB12047.M
TO ALL RADIO AMATEURS BT
Satellite: HUBBLE
Catalog number: 20580
Epoch time: 12046.82577986
Element set: 944
Inclination: 028.4681 deg
RA of node: 224.0934 deg
Eccentricity: 0.0003442
Arg of perigee: 192.6736 deg
Mean anomaly: 167.3883 deg
Mean motion: 15.02183651 rev/day
Decay rate: 1.290e-05 rev/day^2
Epoch rev: 99631
Checksum: 313
Satellite: ISS
Catalog number: 25544
Epoch time: 12047.97101807
Element set: 24
Inclination: 051.6426 deg
RA of node: 010.0328 deg
Eccentricity: 0.0020654
Arg of perigee: 051.7038 deg
Mean anomaly: 071.9608 deg
Mean motion: 15.58964144 rev/day
Decay rate: 1.3413e-04 rev/day^2
Epoch rev: 75911
Checksum: 272
Satellite: CO-58
Catalog number: 28895
Epoch time: 12047.61899627
Element set: 100
Inclination: 097.9347 deg
RA of node: 279.1187 deg
Eccentricity: 0.0018133
Arg of perigee: 169.6628 deg
Mean anomaly: 190.4976 deg
Mean motion: 14.60483965 rev/day
Decay rate: 6.88e-06 rev/day^2
Epoch rev: 33591
Checksum: 371
Satellite: FALCON
Catalog number: 30776
Epoch time: 12046.89804953
Element set: 282
Inclination: 035.4340 deg
RA of node: 303.2499 deg
Eccentricity: 0.0002790
Arg of perigee: 001.4887 deg
Mean anomaly: 358.5838 deg
Mean motion: 15.06612864 rev/day
Decay rate: 2.857e-05 rev/day^2
Epoch rev: 27179
Checksum: 324
Satellite: MAST
Catalog number: 31126
Epoch time: 12047.56346372
Element set: 385
Inclination: 097.8792 deg
RA of node: 065.7619 deg
Eccentricity: 0.0094583
Arg of perigee: 129.2066 deg
Mean anomaly: 231.7575 deg
Mean motion: 14.54032341 rev/day
Decay rate: 2.70e-06 rev/day^2
Epoch rev: 25659
Checksum: 312
Satellite: CAPE1
Catalog number: 31130
Epoch time: 12045.98039344
Element set: 0398
Inclination: 097.8893 deg
RA of node: 060.7413 deg
Eccentricity: 0.0102538
Arg of perigee: 146.4258 deg
Mean anomaly: 214.3516 deg
Mean motion: 14.52767013 rev/day
Decay rate: 4.03e-06 rev/day^2
Epoch rev: 25588
Checksum: 297
Satellite: COMPASS
Catalog number: 32787
Epoch time: 12047.68147536
Element set: 224
Inclination: 097.8153 deg
RA of node: 111.6630 deg
Eccentricity: 0.0016532
Arg of perigee: 098.7091 deg
Mean anomaly: 261.5991 deg
Mean motion: 14.83514019 rev/day
Decay rate: 2.090e-05 rev/day^2
Epoch rev: 20579
Checksum: 302
Satellite: AAUSAT2
Catalog number: 32788
Epoch time: 12047.81067720
Element set: 216
Inclination: 097.8171 deg
RA of node: 112.1081 deg
Eccentricity: 0.0016260
Arg of perigee: 097.0192 deg
Mean anomaly: 263.2889 deg
Mean motion: 14.83792528 rev/day
Decay rate: 1.958e-05 rev/day^2
Epoch rev: 20583
Checksum: 310
Satellite: DO-64
Catalog number: 32789
Epoch time: 12047.69654800
Element set: 231
Inclination: 097.8271 deg
RA of node: 113.5950 deg
Eccentricity: 0.0016044
Arg of perigee: 096.4983 deg
Mean anomaly: 263.8076 deg
Mean motion: 14.84944795 rev/day
Decay rate: 3.273e-05 rev/day^2
Epoch rev: 20584
Checksum: 339
Satellite: CO-66
Catalog number: 32791
Epoch time: 12047.82930179
Element set: 218
Inclination: 097.8173 deg
RA of node: 111.6375 deg
Eccentricity: 0.0016849
Arg of perigee: 096.7828 deg
Mean anomaly: 263.5277 deg
Mean motion: 14.83017591 rev/day
Decay rate: 1.479e-05 rev/day^2
Epoch rev: 20575
Checksum: 345
Satellite: RS-30
Catalog number: 32953
Epoch time: 12047.83304171
Element set: 528
Inclination: 082.5036 deg
RA of node: 010.5953 deg
Eccentricity: 0.0017746
Arg of perigee: 210.3256 deg
Mean anomaly: 149.6803 deg
Mean motion: 12.43020880 rev/day
Decay rate: 1.0e-07 rev/day^2
Epoch rev: 16948
Checksum: 271
Satellite: TACSAT-3
Catalog number: 35001
Epoch time: 12046.57211859
Element set: 0868
Inclination: 040.4482 deg
RA of node: 115.5473 deg
Eccentricity: 0.0006690
Arg of perigee: 107.6709 deg
Mean anomaly: 252.4855 deg
Mean motion: 15.73597272 rev/day
Decay rate: 8.5206e-04 rev/day^2
Epoch rev: 15504
Checksum: 307
Satellite: PHARMSAT
Catalog number: 35002
Epoch time: 12047.54031043
Element set: 797
Inclination: 040.4666 deg
RA of node: 113.8230 deg
Eccentricity: 0.0005974
Arg of perigee: 253.6730 deg
Mean anomaly: 106.3653 deg
Mean motion: 15.65115106 rev/day
Decay rate: 4.7003e-04 rev/day^2
Epoch rev: 15515
Checksum: 255
Satellite: METEOR-M
Catalog number: 35865
Epoch time: 12047.69026758
Element set: 153
Inclination: 098.6716 deg
RA of node: 104.2039 deg
Eccentricity: 0.0003263
Arg of perigee: 050.3207 deg
Mean anomaly: 309.8256 deg
Mean motion: 14.21855680 rev/day
Decay rate: -1.7e-07 rev/day^2
Epoch rev: 12533
Checksum: 287
Satellite: RS-38
Catalog number: 35869
Epoch time: 12047.65851990
Element set: 157
Inclination: 098.6685 deg
RA of node: 104.1867 deg
Eccentricity: 0.0005342
Arg of perigee: 049.9760 deg
Mean anomaly: 310.1881 deg
Mean motion: 14.22054344 rev/day
Decay rate: 1.4e-07 rev/day^2
Epoch rev: 12534
Checksum: 312
Satellite: JUGNU
Catalog number: 37839
Epoch time: 12046.28181088
Element set: 0090
Inclination: 019.9630 deg
RA of node: 022.7870 deg
Eccentricity: 0.0018856
Arg of perigee: 311.3264 deg
Mean anomaly: 048.5464 deg
Mean motion: 14.12025143 rev/day
Decay rate: 6.19e-06 rev/day^2
Epoch rev: 01785
Checksum: 290
Satellite: SRMSAT
Catalog number: 37841
Epoch time: 12046.94774270
Element set: 0090
Inclination: 019.9738 deg
RA of node: 021.2501 deg
Eccentricity: 0.0012162
Arg of perigee: 287.1734 deg
Mean anomaly: 072.7385 deg
Mean motion: 14.10114898 rev/day
Decay rate: 2.64e-06 rev/day^2
Epoch rev: 01792
Checksum: 286
Satellite: RAX-2
Catalog number: 37853
Epoch time: 12047.92749147
Element set: 99
Inclination: 101.7135 deg
RA of node: 033.0097 deg
Eccentricity: 0.0250927
Arg of perigee: 336.2906 deg
Mean anomaly: 022.6894 deg
Mean motion: 14.78860318 rev/day
Decay rate: 6.742e-05 rev/day^2
Epoch rev: 1646
Checksum: 319
